Location: Peach Mountain Observatory
(42.3967°N, 83.9367°W)
Time: 19:24:58
(UTC-05:00)

Explorer 11/Cluster Stage 4 - Pass Details

Date: 26 January 2020
Orbit: 467 x 1259 km, 28.8° (Epoch: 16 February)

Event Time Altitude Azimuth Distance (km) Brightness Sun altitude
Rises 18:53:48 0° 257° (WSW) 3,999 12.3 -13.4°
Reaches altitude 10° 18:58:49 10° 230° (SW) 2,864 10.5 -14.3°
Maximum altitude 19:01:22 12° 208° (SSW) 2,600 9.8 -14.8°
Drops below altitude 10° 19:03:46 10° 186° (S) 2,651 9.5 -15.2°
Sets 19:07:59 0° 157° (SSE) 3,382 9.7 -16.0°
